| time (UTC) | temp F | wind direction | speed MPH | gust MPH | rain 1hr in | rain 24hr in | rain mn in | humidity % | barometer mb |
| 20260502170515 | 54 | 210 | 0.0 | 4.0 | 0.00 | 0.12 | 0.12 | 84 | 1008.0 |
| 20260502164015 | 52 | 0.0 | 0.0 | 0.00 | 0.12 | 0.12 | 85 | 1008.2 | |
| 20260502163535 | 52 | 0.0 | 0.0 | 0.00 | 0.12 | 0.12 | 85 | 1008.2 | |
| 20260502163015 | 51 | 0.0 | 0.0 | 0.00 | 0.12 | 0.12 | 85 | 1008.4 | |
| 20260502162515 | 51 | 0.0 | 4.0 | 0.00 | 0.12 | 0.12 | 85 | 1008.5 | |
| 20260502162035 | 51 | 132 | 0.0 | 4.0 | 0.00 | 0.12 | 0.12 | 84 | 1008.6 |
| 20260502161535 | 52 | 175 | 0.0 | 1.0 | 0.00 | 0.12 | 0.12 | 83 | 1008.7 |
| 20260502161015 | 52 | 0.0 | 0.0 | 0.00 | 0.12 | 0.12 | 84 | 1008.8 | |
| 20260502160515 | 52 | 0.0 | 0.0 | 0.00 | 0.12 | 0.12 | 83 | 1008.8 | |
| 20260502152015 | 50 | 0.0 | 0.0 | 0.00 | 0.12 | 0.12 | 88 | 1008.8 | |
| 20260502151515 | 50 | 0.0 | 1.0 | 0.00 | 0.12 | 0.12 | 88 | 1008.9 | |
| 20260502151035 | 49 | 167 | 0.0 | 1.0 | 0.00 | 0.12 | 0.12 | 88 | 1009.0 |
| 20260502150515 | 49 | 0.0 | 0.0 | 0.00 | 0.12 | 0.12 | 87 | 1008.9 | |
| 20260502130555 | 46 | 31 | 0.0 | 1.0 | 0.04 | 0.12 | 0.12 | 91 | 1009.5 |
| 20260502123515 | 45 | 0.0 | 0.0 | 0.06 | 0.10 | 0.10 | 91 | 1010.0 | |
| 20260502123017 | 46 | 0.0 | 0.0 | 0.06 | 0.09 | 0.09 | 91 | 1010.0 | |
| 20260502122516 | 46 | 0.0 | 0.0 | 0.06 | 0.08 | 0.08 | 91 | 1010.0 | |
| 20260502122016 | 46 | 0.0 | 0.0 | 0.06 | 0.08 | 0.08 | 91 | 1010.1 | |
| 20260502121517 | 46 | 0.0 | 0.0 | 0.07 | 0.08 | 0.08 | 91 | 1009.9 | |
| 20260502121037 | 46 | 0.0 | 0.0 | 0.07 | 0.08 | 0.08 | 92 | 1009.9 | |
| 20260502120537 | 46 | 0.0 | 0.0 | 0.07 | 0.08 | 0.08 | 92 | 1009.7 | |
| 20260502115537 | 46 | 0.0 | 0.0 | 0.06 | 0.07 | 0.07 | 92 | 1009.7 | |
| 20260502115017 | 46 | 0.0 | 0.0 | 0.05 | 0.06 | 0.06 | 91 | 1009.9 | |
| 20260502114017 | 45 | 0.0 | 2.0 | 0.03 | 0.04 | 0.04 | 91 | 1010.2 | |
| 20260502113516 | 46 | 287 | 0.0 | 2.0 | 0.03 | 0.04 | 0.04 | 91 | 1010.3 |
| 20260502113016 | 46 | 287 | 0.0 | 1.0 | 0.02 | 0.03 | 0.03 | 91 | 1010.3 |
| 20260502112516 | 46 | 283 | 0.0 | 6.0 | 0.01 | 0.02 | 0.02 | 91 | 1010.1 |
| 20260502112016 | 45 | 277 | 1.0 | 6.0 | 0.02 | 0.02 | 0.02 | 91 | 1009.9 |
| 20260502111517 | 45 | 0.0 | 0.0 | 0.01 | 0.01 | 0.01 | 91 | 1009.6 | |
| 20260502111016 | 45 | 0.0 | 0.0 | 0.01 | 0.01 | 0.01 | 91 | 1009.3 | |
| 20260502110537 | 45 | 0.0 | 0.0 | 0.01 | 0.01 | 0.01 | 91 | 1009.1 | |
| 20260502110016 | 45 | 0.0 | 0.0 | 0.01 | 0.01 | 0.01 | 91 | 1009.1 | |
| 20260502105517 | 45 | 0.0 | 1.0 | 0.01 | 0.01 | 0.01 | 91 | 1009.1 | |
| 20260502105016 | 45 | 282 | 0.0 | 1.0 | 0.01 | 0.01 | 0.01 | 91 | 1008.9 |
| 20260502104516 | 45 | 0.0 | 0.0 | 0.01 | 0.01 | 0.01 | 91 | 1008.8 | |
| 20260502104016 | 45 | 0.0 | 0.0 | 0.01 | 0.01 | 0.01 | 90 | 1008.8 | |
| 20260502103536 | 45 | 0.0 | 0.0 | 0.01 | 0.01 | 0.01 | 90 | 1008.8 | |
| 20260502103016 | 45 | 0.0 | 1.0 | 0.01 | 0.01 | 0.01 | 90 | 1008.9 | |
| 20260502102516 | 45 | 282 | 0.0 | 1.0 | 0.01 | 0.01 | 0.01 | 90 | 1009.0 |
| 20260502102056 | 45 | 0.0 | 0.0 | 0.00 | 0.00 | 0.00 | 90 | 1008.9 | |
| 20260502101516 | 45 | 0.0 | 0.0 | 0.00 | 0.00 | 0.00 | 90 | 1008.9 | |
| 20260502101016 | 45 | 0.0 | 0.0 | 0.00 | 0.00 | 0.00 | 90 | 1009.1 | |
| 20260502100516 | 45 | 0.0 | 0.0 | 0.00 | 0.00 | 0.00 | 90 | 1009.2 | |
| 20260502091016 | 45 | 0.0 | 0.0 | 0.00 | 0.00 | 0.00 | 86 | 1008.2 | |
| 20260502090516 | 45 | 0.0 | 0.0 | 0.00 | 0.00 | 0.00 | 85 | 1008.3 | |
| 20260502071516 | 47 | 0.0 | 0.0 | 0.00 | 0.00 | 0.00 | 78 | 1008.6 | |
| 20260502071017 | 47 | 0.0 | 0.0 | 0.00 | 0.00 | 0.00 | 77 | 1008.7 | |
| 20260502070516 | 46 | 0.0 | 0.0 | 0.00 | 0.00 | 0.00 | 77 | 1008.7 | |
| 20260502070016 | 46 | 0.0 | 0.0 | 0.00 | 0.00 | 0.00 | 78 | 1008.7 | |
| 20260502065516 | 46 | 0.0 | 0.0 | 0.00 | 0.00 | 0.00 | 77 | 1008.9 | |
| 20260502065016 | 46 | 0.0 | 0.0 | 0.00 | 0.00 | 0.00 | 79 | 1008.9 | |
| 20260502064516 | 46 | 0.0 | 0.0 | 0.00 | 0.00 | 0.00 | 79 | 1009.0 | |
| 20260502064016 | 46 | 0.0 | 0.0 | 0.00 | 0.00 | 0.00 | 82 | 1008.9 | |
| 20260502063516 | 45 | 0.0 | 0.0 | 0.00 | 0.00 | 0.00 | 80 | 1008.9 | |
| 20260502063036 | 45 | 0.0 | 0.0 | 0.00 | 0.00 | 0.00 | 81 | 1008.8 | |
| 20260502062516 | 45 | 0.0 | 0.0 | 0.00 | 0.00 | 0.00 | 81 | 1008.8 | |
| 20260502062016 | 45 | 0.0 | 0.0 | 0.00 | 0.00 | 0.00 | 80 | 1008.7 | |
| 20260502061516 | 45 | 0.0 | 0.0 | 0.00 | 0.00 | 0.00 | 81 | 1008.7 | |
| 20260502061015 | 45 | 0.0 | 0.0 | 0.00 | 0.00 | 0.00 | 80 | 1008.7 | |
| 20260502060515 | 45 | 0.0 | 0.0 | 0.00 | 0.00 | 0.00 | 81 | 1008.9 | |
| 20260502060036 | 45 | 0.0 | 0.0 | 0.00 | 0.00 | 0.00 | 80 | 1008.8 | |
| 20260502055516 | 45 | 0.0 | 0.0 | 0.00 | 0.00 | 0.00 | 80 | 1008.8 | |
| 20260502055035 | 45 | 0.0 | 0.0 | 0.00 | 0.00 | 0.00 | 81 | 1008.8 | |
| 20260502054516 | 45 | 0.0 | 0.0 | 0.00 | 0.00 | 0.00 | 80 | 1008.9 | |
| 20260502054015 | 45 | 0.0 | 0.0 | 0.00 | 0.00 | 0.00 | 80 | 1008.8 | |
| 20260502053515 | 45 | 0.0 | 0.0 | 0.00 | 0.00 | 0.00 | 79 | 1008.7 | |
| 20260502053016 | 45 | 0.0 | 0.0 | 0.00 | 0.00 | 0.00 | 78 | 1008.7 | |
| 20260502052535 | 45 | 0.0 | 0.0 | 0.00 | 0.00 | 0.00 | 78 | 1008.8 | |
| 20260502052016 | 45 | 0.0 | 0.0 | 0.00 | 0.00 | 0.00 | 79 | 1008.8 | |
| 20260502051516 | 45 | 0.0 | 0.0 | 0.00 | 0.00 | 0.00 | 78 | 1008.8 | |
| 20260502051016 | 45 | 0.0 | 0.0 | 0.00 | 0.00 | 0.00 | 78 | 1008.9 | |
| 20260502050536 | 45 | 0.0 | 0.0 | 0.00 | 0.00 | 0.00 | 77 | 1008.8 | |
| 20260502050016 | 46 | 0.0 | 0.0 | 0.00 | 0.00 | 0.00 | 77 | 1008.9 | |
| 20260502045516 | 46 | 0.0 | 0.0 | 0.00 | 0.00 | 0.00 | 76 | 1008.9 | |
| 20260502045015 | 46 | 0.0 | 0.0 | 0.00 | 0.00 | 0.00 | 76 | 1008.8 | |
| 20260502044515 | 46 | 0.0 | 0.0 | 0.00 | 0.00 | 0.00 | 76 | 1008.8 | |
| 20260502044016 | 46 | 0.0 | 0.0 | 0.00 | 0.00 | 0.00 | 75 | 1008.9 | |
| 20260502043516 | 46 | 0.0 | 0.0 | 0.00 | 0.00 | 0.00 | 75 | 1008.9 | |
| 20260502043036 | 46 | 0.0 | 0.0 | 0.00 | 0.00 | 0.00 | 76 | 1008.9 | |
| 20260502042535 | 46 | 0.0 | 0.0 | 0.00 | 0.00 | 0.00 | 76 | 1009.0 | |
| 20260502042015 | 46 | 0.0 | 0.0 | 0.00 | 0.00 | 0.00 | 75 | 1008.9 | |
| 20260502041515 | 46 | 0.0 | 0.0 | 0.00 | 0.00 | 0.00 | 75 | 1008.9 | |
| 20260502041016 | 46 | 0.0 | 0.0 | 0.00 | 0.00 | 0.00 | 74 | 1008.8 | |
| 20260502040515 | 46 | 0.0 | 0.0 | 0.00 | 0.00 | 0.00 | 74 | 1008.8 | |
| 20260502040015 | 46 | 0.0 | 0.0 | 0.00 | 0.00 | 0.00 | 74 | 1008.8 | |
| 20260502035515 | 46 | 0.0 | 0.0 | 0.00 | 0.00 | 0.00 | 73 | 1008.8 | |
| 20260502035015 | 46 | 0.0 | 0.0 | 0.00 | 0.00 | 0.00 | 73 | 1008.8 | |
| 20260502034515 | 46 | 0.0 | 0.0 | 0.00 | 0.00 | 0.00 | 74 | 1008.8 | |
| 20260502034015 | 46 | 0.0 | 0.0 | 0.00 | 0.00 | 0.00 | 74 | 1008.7 | |
| 20260502033535 | 46 | 0.0 | 0.0 | 0.00 | 0.00 | 0.00 | 74 | 1008.7 | |
| 20260502033015 | 46 | 0.0 | 0.0 | 0.00 | 0.00 | 0.00 | 74 | 1008.7 | |
| 20260502032515 | 45 | 0.0 | 0.0 | 0.00 | 0.00 | 0.00 | 76 | 1008.6 | |
| 20260502032015 | 45 | 0.0 | 0.0 | 0.00 | 0.00 | 0.00 | 76 | 1008.6 | |
| 20260502031515 | 45 | 0.0 | 0.0 | 0.00 | 0.00 | 0.00 | 75 | 1008.6 | |
| 20260502031015 | 45 | 0.0 | 0.0 | 0.00 | 0.00 | 0.00 | 74 | 1008.6 | |
| 20260502030515 | 45 | 0.0 | 0.0 | 0.00 | 0.00 | 0.00 | 74 | 1008.5 | |
| 20260502030015 | 45 | 0.0 | 0.0 | 0.00 | 0.00 | 0.00 | 74 | 1008.6 | |
| 20260502025515 | 45 | 0.0 | 0.0 | 0.00 | 0.00 | 0.00 | 74 | 1008.6 | |
| 20260502025015 | 45 | 0.0 | 0.0 | 0.00 | 0.00 | 0.00 | 74 | 1008.6 | |
| 20260502024515 | 45 | 0.0 | 0.0 | 0.00 | 0.00 | 0.00 | 73 | 1008.5 | |
| 20260502024015 | 45 | 0.0 | 0.0 | 0.00 | 0.00 | 0.00 | 74 | 1008.5 | |
| 20260502023515 | 45 | 0.0 | 0.0 | 0.00 | 0.00 | 0.00 | 73 | 1008.5 | |
| 20260502023015 | 45 | 0.0 | 0.0 | 0.00 | 0.00 | 0.00 | 72 | 1008.5 | |
| 20260502022515 | 45 | 0.0 | 0.0 | 0.00 | 0.00 | 0.00 | 72 | 1008.5 | |
| 20260502022015 | 45 | 0.0 | 0.0 | 0.00 | 0.00 | 0.00 | 72 | 1008.5 | |
| 20260502021535 | 45 | 0.0 | 0.0 | 0.00 | 0.00 | 0.00 | 71 | 1008.6 | |
| 20260502021015 | 45 | 0.0 | 0.0 | 0.00 | 0.00 | 0.00 | 71 | 1008.6 | |
| 20260502020555 | 45 | 0.0 | 0.0 | 0.00 | 0.00 | 0.00 | 70 | 1008.6 | |
| 20260502020015 | 45 | 0.0 | 0.0 | 0.00 | 0.00 | 0.00 | 69 | 1008.6 | |
| 20260502015515 | 45 | 0.0 | 0.0 | 0.00 | 0.00 | 0.00 | 68 | 1008.6 | |
| 20260502015015 | 46 | 0.0 | 0.0 | 0.00 | 0.00 | 0.00 | 67 | 1008.6 | |
| 20260502014515 | 46 | 0.0 | 0.0 | 0.00 | 0.00 | 0.00 | 66 | 1008.6 | |
| 20260502014015 | 46 | 0.0 | 0.0 | 0.00 | 0.00 | 0.00 | 66 | 1008.5 | |
| 20260502013515 | 46 | 0.0 | 0.0 | 0.00 | 0.00 | 0.00 | 64 | 1008.5 | |
| 20260502013015 | 47 | 0.0 | 0.0 | 0.00 | 0.00 | 0.00 | 64 | 1008.5 | |
| 20260502012515 | 47 | 0.0 | 0.0 | 0.00 | 0.00 | 0.00 | 65 | 1008.5 | |
| 20260502012035 | 48 | 0.0 | 0.0 | 0.00 | 0.00 | 0.00 | 63 | 1008.4 | |
| 20260502011515 | 48 | 0.0 | 0.0 | 0.00 | 0.00 | 0.00 | 60 | 1008.4 | |
| 20260502011015 | 48 | 0.0 | 0.0 | 0.00 | 0.00 | 0.00 | 59 | 1008.3 | |
| 20260502010515 | 49 | 0.0 | 0.0 | 0.00 | 0.00 | 0.00 | 60 | 1008.3 | |
| 20260502010015 | 49 | 0.0 | 0.0 | 0.00 | 0.00 | 0.00 | 60 | 1008.2 | |
| 20260502005515 | 50 | 0.0 | 0.0 | 0.00 | 0.00 | 0.00 | 59 | 1008.2 | |
| 20260502005015 | 50 | 0.0 | 0.0 | 0.00 | 0.00 | 0.00 | 59 | 1008.1 | |
| 20260502004515 | 50 | 0.0 | 0.0 | 0.00 | 0.00 | 0.00 | 58 | 1008.1 | |
| 20260502004015 | 51 | 0.0 | 0.0 | 0.00 | 0.00 | 0.00 | 57 | 1008.0 | |
| 20260502003515 | 51 | 0.0 | 0.0 | 0.00 | 0.00 | 0.00 | 55 | 1007.9 | |
| 20260502003035 | 52 | 0.0 | 0.0 | 0.00 | 0.00 | 0.00 | 54 | 1007.9 | |
| 20260502002535 | 52 | 0.0 | 0.0 | 0.00 | 0.00 | 0.00 | 51 | 1007.8 | |
| 20260502002015 | 53 | 0.0 | 0.0 | 0.00 | 0.00 | 0.00 | 53 | 1007.7 | |
| 20260502001515 | 53 | 0.0 | 0.0 | 0.00 | 0.00 | 0.00 | 51 | 1007.6 | |
| 20260502001016 | 54 | 0.0 | 0.0 | 0.00 | 0.00 | 0.00 | 50 | 1007.5 | |
| 20260502000517 | 55 | 0.0 | 0.0 | 0.00 | 0.00 | 0.00 | 46 | 1007.4 | |
| 20260502000017 | 55 | 0.0 | 0.0 | 0.00 | 0.00 | 0.00 | 45 | 1007.4 | |
| 20260501235517 | 56 | 0.0 | 0.0 | 0.00 | 0.00 | 0.00 | 45 | 1007.4 | |
| 20260501235037 | 56 | 0.0 | 0.0 | 0.00 | 0.00 | 0.00 | 43 | 1007.3 | |
| 20260501234516 | 57 | 0.0 | 0.0 | 0.00 | 0.00 | 0.00 | 43 | 1007.2 | |
| 20260501234016 | 57 | 0.0 | 0.0 | 0.00 | 0.00 | 0.00 | 42 | 1007.1 | |
| 20260501233517 | 57 | 0.0 | 0.0 | 0.00 | 0.00 | 0.00 | 42 | 1007.0 | |
| 20260501233017 | 58 | 0.0 | 0.0 | 0.00 | 0.00 | 0.00 | 40 | 1006.9 | |
| 20260501232517 | 58 | 0.0 | 0.0 | 0.00 | 0.00 | 0.00 | 38 | 1006.8 | |
| 20260501232016 | 58 | 0.0 | 0.0 | 0.00 | 0.00 | 0.00 | 39 | 1006.7 | |
| 20260501231516 | 58 | 0.0 | 0.0 | 0.00 | 0.00 | 0.00 | 39 | 1006.7 | |
| 20260501231017 | 59 | 0.0 | 0.0 | 0.00 | 0.00 | 0.00 | 38 | 1006.6 | |
| 20260501230516 | 59 | 0.0 | 0.0 | 0.00 | 0.00 | 0.00 | 37 | 1006.6 | |
| 20260501230036 | 59 | 0.0 | 0.0 | 0.00 | 0.00 | 0.00 | 36 | 1006.6 | |
| 20260501225516 | 59 | 0.0 | 0.0 | 0.00 | 0.00 | 0.00 | 37 | 1006.6 | |
| 20260501225016 | 59 | 0.0 | 0.0 | 0.00 | 0.00 | 0.00 | 36 | 1006.6 | |
| 20260501224516 | 60 | 0.0 | 0.0 | 0.00 | 0.00 | 0.00 | 36 | 1006.6 | |
| 20260501224016 | 60 | 0.0 | 0.0 | 0.00 | 0.00 | 0.00 | 35 | 1006.6 | |
| 20260501223516 | 60 | 0.0 | 0.0 | 0.00 | 0.00 | 0.00 | 34 | 1006.5 | |
| 20260501223016 | 60 | 0.0 | 0.0 | 0.00 | 0.00 | 0.00 | 36 | 1006.5 | |
| 20260501222556 | 60 | 0.0 | 1.0 | 0.00 | 0.00 | 0.00 | 36 | 1006.5 | |
| 20260501222016 | 60 | 324 | 0.0 | 4.0 | 0.00 | 0.00 | 0.00 | 35 | 1006.5 |
| 20260501221516 | 61 | 326 | 0.0 | 4.0 | 0.00 | 0.00 | 0.00 | 36 | 1006.5 |
| 20260501221016 | 61 | 0.0 | 0.0 | 0.00 | 0.00 | 0.00 | 36 | 1006.4 | |
| 20260501220516 | 61 | 0.0 | 0.0 | 0.00 | 0.00 | 0.00 | 35 | 1006.3 | |
| 20260501220016 | 61 | 0.0 | 5.0 | 0.00 | 0.00 | 0.00 | 34 | 1006.3 | |
| 20260501215516 | 61 | 16 | 0.0 | 5.0 | 0.00 | 0.00 | 0.00 | 36 | 1006.3 |
| 20260501215016 | 61 | 297 | 0.0 | 3.0 | 0.00 | 0.00 | 0.00 | 36 | 1006.3 |
| 20260501214516 | 61 | 55 | 0.0 | 5.0 | 0.00 | 0.00 | 0.00 | 35 | 1006.3 |
| 20260501214017 | 61 | 319 | 0.0 | 5.0 | 0.00 | 0.00 | 0.00 | 37 | 1006.3 |
| 20260501213516 | 61 | 0.0 | 2.0 | 0.00 | 0.00 | 0.00 | 36 | 1006.2 | |
| 20260501213016 | 61 | 50 | 0.0 | 2.0 | 0.00 | 0.00 | 0.00 | 37 | 1006.2 |
| 20260501212516 | 61 | 316 | 0.0 | 7.0 | 0.00 | 0.00 | 0.00 | 36 | 1006.2 |
| 20260501212016 | 61 | 271 | 0.0 | 7.0 | 0.00 | 0.00 | 0.00 | 36 | 1006.2 |
| 20260501211516 | 61 | 0.0 | 0.0 | 0.00 | 0.00 | 0.00 | 36 | 1006.1 | |
| 20260501211016 | 61 | 0.0 | 0.0 | 0.00 | 0.00 | 0.00 | 35 | 1006.0 | |
| 20260501210516 | 61 | 0.0 | 0.0 | 0.00 | 0.00 | 0.00 | 35 | 1006.1 | |
| 20260501210036 | 61 | 0.0 | 10.0 | 0.00 | 0.00 | 0.00 | 34 | 1006.0 | |
| 20260501205516 | 62 | 302 | 0.0 | 10.0 | 0.00 | 0.00 | 0.00 | 35 | 1005.9 |
| 20260501205016 | 62 | 261 | 1.0 | 10.0 | 0.00 | 0.00 | 0.00 | 36 | 1005.8 |
| 20260501204516 | 62 | 0.0 | 8.0 | 0.00 | 0.00 | 0.00 | 35 | 1005.8 | |
| 20260501204016 | 62 | 289 | 1.0 | 8.0 | 0.00 | 0.00 | 0.00 | 35 | 1005.8 |
| 20260501203516 | 62 | 252 | 0.0 | 6.0 | 0.00 | 0.00 | 0.00 | 35 | 1005.8 |
| 20260501203016 | 63 | 290 | 0.0 | 6.0 | 0.00 | 0.00 | 0.00 | 35 | 1005.9 |
| 20260501202516 | 63 | 0.0 | 1.0 | 0.00 | 0.00 | 0.00 | 37 | 1005.9 | |
| 20260501202016 | 63 | 269 | 0.0 | 3.0 | 0.00 | 0.00 | 0.00 | 38 | 1005.9 |
| 20260501201536 | 63 | 263 | 0.0 | 3.0 | 0.00 | 0.00 | 0.00 | 37 | 1005.9 |
| 20260501201016 | 62 | 28 | 0.0 | 1.0 | 0.00 | 0.00 | 0.00 | 38 | 1005.8 |
| 20260501200516 | 62 | 0.0 | 0.0 | 0.00 | 0.00 | 0.00 | 37 | 1005.9 | |
| 20260501200016 | 62 | 0.0 | 0.0 | 0.00 | 0.00 | 0.00 | 38 | 1005.9 | |
| 20260501195516 | 62 | 0.0 | 0.0 | 0.00 | 0.00 | 0.00 | 38 | 1005.9 | |
| 20260501195036 | 62 | 0.0 | 10.0 | 0.00 | 0.00 | 0.00 | 37 | 1005.9 | |
| 20260501194516 | 61 | 254 | 2.0 | 10.0 | 0.00 | 0.00 | 0.00 | 37 | 1006.0 |
| 20260501194016 | 61 | 229 | 0.0 | 1.0 | 0.00 | 0.00 | 0.00 | 36 | 1006.1 |
| 20260501193516 | 62 | 0.0 | 0.0 | 0.00 | 0.00 | 0.00 | 36 | 1006.0 | |
| 20260501193016 | 62 | 0.0 | 1.0 | 0.00 | 0.00 | 0.00 | 36 | 1006.1 | |
| 20260501192516 | 62 | 261 | 0.0 | 15.0 | 0.00 | 0.00 | 0.00 | 35 | 1006.1 |
| 20260501192036 | 62 | 253 | 2.0 | 15.0 | 0.00 | 0.00 | 0.00 | 36 | 1006.3 |
| 20260501191536 | 62 | 310 | 0.0 | 10.0 | 0.00 | 0.00 | 0.00 | 37 | 1006.3 |
| 20260501191016 | 62 | 0.0 | 1.0 | 0.00 | 0.00 | 0.00 | 37 | 1006.2 | |
| 20260501190516 | 62 | 256 | 0.0 | 1.0 | 0.00 | 0.00 | 0.00 | 37 | 1006.3 |
| 20260501190016 | 62 | 355 | 0.0 | 1.0 | 0.00 | 0.00 | 0.00 | 38 | 1006.3 |
| 20260501185516 | 62 | 0.0 | 0.0 | 0.00 | 0.00 | 0.00 | 39 | 1006.3 | |
| 20260501185056 | 62 | 0.0 | 4.0 | 0.00 | 0.00 | 0.00 | 40 | 1006.3 | |
| 20260501184516 | 63 | 322 | 0.0 | 4.0 | 0.00 | 0.00 | 0.00 | 39 | 1006.4 |
| 20260501184016 | 63 | 0.0 | 1.0 | 0.00 | 0.00 | 0.00 | 40 | 1006.4 | |
| 20260501183516 | 62 | 306 | 0.0 | 1.0 | 0.00 | 0.00 | 0.00 | 42 | 1006.4 |
| 20260501183016 | 62 | 0.0 | 0.0 | 0.00 | 0.00 | 0.00 | 43 | 1006.4 | |
| 20260501182516 | 62 | 0.0 | 0.0 | 0.00 | 0.00 | 0.00 | 41 | 1006.5 | |
| 20260501182016 | 62 | 0.0 | 0.0 | 0.00 | 0.00 | 0.00 | 45 | 1006.5 | |
| 20260501181536 | 61 | 0.0 | 1.0 | 0.00 | 0.00 | 0.00 | 44 | 1006.4 | |
| 20260501181016 | 60 | 296 | 0.0 | 11.0 | 0.00 | 0.00 | 0.00 | 44 | 1006.5 |
| 20260501180516 | 60 | 270 | 1.0 | 14.0 | 0.00 | 0.00 | 0.00 | 45 | 1006.5 |
| 20260501180036 | 59 | 271 | 2.0 | 14.0 | 0.00 | 0.00 | 0.00 | 43 | 1006.6 |
| 20260501175536 | 59 | 281 | 0.0 | 23.0 | 0.00 | 0.00 | 0.00 | 42 | 1006.6 |
| 20260501175016 | 59 | 275 | 1.0 | 23.0 | 0.00 | 0.00 | 0.00 | 42 | 1006.6 |
| 20260501174516 | 59 | 287 | 0.0 | 7.0 | 0.00 | 0.00 | 0.00 | 41 | 1006.6 |
| 20260501174016 | 59 | 178 | 0.0 | 10.0 | 0.00 | 0.00 | 0.00 | 43 | 1006.6 |
| 20260501173516 | 60 | 275 | 0.0 | 11.0 | 0.00 | 0.00 | 0.00 | 42 | 1006.6 |
| 20260501173016 | 60 | 302 | 1.0 | 11.0 | 0.00 | 0.00 | 0.00 | 40 | 1006.7 |
| 20260501172516 | 61 | 0.0 | 14.0 | 0.00 | 0.00 | 0.00 | 45 | 1006.6 | |
| 20260501172036 | 61 | 258 | 1.0 | 14.0 | 0.00 | 0.00 | 0.00 | 45 | 1006.6 |
| 20260501171516 | 60 | 0.0 | 0.0 | 0.00 | 0.00 | 0.00 | 47 | 1006.6 | |
| 20260501171016 | 60 | 0.0 | 1.0 | 0.00 | 0.00 | 0.00 | 44 | 1006.6 |